Location: Newark
(47.5833°N, 8.1500°E)
Time: 16:48:58
(UTC+00:00)

Vanguard 3 - Visible Passes

Search period start: 21 October 2020 00:00
Search period end: 31 October 2020 00:00
Orbit: 508 x 3263 km, 33.3° (Epoch: 20 October)

Date Brightness Start Highest point End Pass type
(mag) Time Alt. Az. Time Alt. Az. Time Alt. Az.
21 Oct 11.6 04:47:05 10° S 05:00:15 23° SE 05:12:34 10° E visible
22 Oct 11.7 03:36:48 10° SSE 03:45:03 14° SE 03:53:19 10° ESE visible
23 Oct 11.4 04:28:35 10° S 04:42:30 26° SE 04:56:05 10° E visible
24 Oct 11.5 03:17:30 10° SSE 03:27:18 17° SE 03:37:27 10° ESE visible
24 Oct 11.3 05:23:55 10° SSW 05:40:27 37° SSE 05:55:49 10° E visible
25 Oct 11.3 04:10:27 10° SSW 04:24:42 28° SE 04:39:19 10° E visible
26 Oct 11.3 02:58:53 10° S 03:09:31 19° SE 03:20:59 10° E visible
26 Oct 11.1 05:06:09 10° SW 05:22:38 39° SSE 05:38:55 10° E visible
27 Oct 11.1 03:52:37 10° SSW 04:06:52 31° SE 04:22:18 10° E visible
28 Oct 11.1 02:40:45 10° S 02:51:43 21° SE 03:04:08 10° E visible
28 Oct 11.0 04:48:36 10° SW 05:04:49 42° SSE 05:21:50 10° E visible
29 Oct 11.3 01:33:15 10° SE 01:37:17 11° SE 01:41:33 10° ESE visible
29 Oct 11.0 03:35:04 10° SSW 03:49:02 33° SE 04:05:05 10° E visible
30 Oct 11.0 02:23:01 10° S 02:33:57 23° SE 02:46:59 10° E visible
30 Oct 10.8 04:31:15 10° SW 04:46:59 43° SSE 05:04:34 10° E visible
